Regional Weather Roundup
Issued by NWS Newport/Morehead, NC

Current Version | Previous Version | Graphics & Text | Print | Product List | Glossary On
Versions: 1 2 3 4 5 6 7 8 9 10 11 12 13 14 15 16 17 18 19 20 21 22 23 24 25 26 27 28 29 30 31 32 33 34 35 36 37 38 39 40 41 42 43 44 45 46 47 48 49 50
000 ASUS42 KMHX 272013 RWRMHX WEATHER ROUNDUP FOR EASTERN NORTH CAROLINA NATIONAL WEATHER SERVICE NEWPORT/MOREHEAD CITY NC 400 PM EDT WED MAY 27 2015 NOTE: "FAIR" INDICATES FEW OR NO CLOUDS BELOW 12,000 FEET WITH NO SIGNIFICANT WEATHER AND/OR OBSTRUCTIONS TO VISIBILITY NCZ015>017-031-032-045>047-102-103-272100- NORTH COAST CITY SKY/WX TMP DP RH WIND PRES REMARKS EDENTON N/A 83 69 64 S15G22 30.20F ELIZABETH CITY MOSUNNY 82 69 64 S15G22 30.21F KITTY HAWK CLEAR 79 65 61 S10G18 30.23F MANTEO SUNNY 78 66 66 S21 30.25F $$ NCZ045>047-081-094-103-104-272100- CENTRAL COAST CITY SKY/WX TMP DP RH WIND PRES REMARKS FRISCO SUNNY 80 63 55 S15 30.26F SWANQUARTER N/A 81 N/A N/A S13G25 30.21S $$ NCZ095-097-098-100-101-272100- SOUTHERN COAST CITY SKY/WX TMP DP RH WIND PRES REMARKS BEAUFORT SUNNY 78 67 68 S16G22 30.26F CEDAR ISLAND N/A 79 N/A N/A SE13G22 30.30S JACKSONVILLE CLOUDY 81 68 64 S18G24 30.23S PINEY ISLAND CLEAR N/A N/A N/A S14G23 30.26S WILMINGTON SUNNY 81 67 62 SE14G22 30.23S $$ NCZ011>013-027>030-043-044-078>080-089-090>093-098-272100- COASTAL PLAIN CITY SKY/WX TMP DP RH WIND PRES REMARKS AHOSKIE SUNNY 84 70 63 S12 30.18F CLINTON PTSUNNY 85 71 62 S6 30.19F ELIZABETHTOWN PTSUNNY 84 69 60 S5 30.20F GOLDSBORO PTSUNNY 86 69 57 VRB7 30.16F GREENVILLE MOSUNNY 86 70 58 S10G16 30.19F HAVELOCK PTSUNNY 81 66 60 SE17G23 30.25F KENANSVILLE PTSUNNY 82 68 61 SE6G16 30.21F KINSTON PTSUNNY 86 70 58 S14 30.20S NEW BERN MOSUNNY 84 67 56 S12G22 30.24S RICHLANDS MOSUNNY 84 66 54 SE15G21 30.22S ROCKY MOUNT MOSUNNY 89 66 46 S9 30.17F WASHINGTON MOSUNNY 83 69 63 S13G20 30.20F WHITEVILLE MOSUNNY 85 67 54 S12 30.20F $$ AMZ130-135-150-152-154-156-158-170-250-252-270-ANZ085-086-088-633-658-670-272100- MARINE OBSERVATIONS STATION/POSITION TIME TEMP WIND PRES WAVE SWELL AIR SEA DIR/SP/G HT/PER HT/PER (UTC) (F) (DEG/KT/KT) (MB) (FT/S) (FT/S) CHESAPEAKE LIGHT 1900 69 170/ 29/ 30 1022.7 64 E VA BEACH 1950 68 64 170/ 16/ 17 1023.8 2/ 6 2/ 6 DUCK 1900 71 57 160/ 17/ 20 1022.8 2 E DUCK 1911 65 N/A 2/ 5 OREGON INLET 1900 78 77 160/ 14/ 18 1024.7 13E OREGON INLT 1900 71 N/A 2/ 7 HATTERAS CG 1900 76 75 160/ 12/ 16 1024.9 DIAMOND BUOY 1950 75 77 160/ 14/ 17 1025.2 3/ 6 2/ 7 CAPE LOOKOUT 2000 74 150/ 13/ 15 1024.4 BEAUFORT LAB 1900 77 75 170/ 13/ 16 1024.1 27 SE WRIGHTSVLE 1900 77 170/ 12/ 14 N/A 5 SE WRIGHTSVLE 1908 77 77 160/ 12/ 16 1024.1 225 S CAPE HAT 1950 74 75 100/ 10/ 12 1024.9 4/ 7 3/ 7 41 SE CHARLESTON 1950 78 78 100/ 6/ 8 1023.4 3/ 7 2/ 7 $$

USA.gov is the U.S. government's official web portal to all federal, state and local government web resources and services.